Wind_Speed
21 21 21 20 18 15 13 12 11 10 11 11 9 8 6 6 7 7 7 5 5 5 5 6 5 6 6 6 7 7 6 5 5 6 8 10 12 13 12 13 14 16 16
17 19 19 19 17 15 13 13 13 11 10 10 9 8 7 7 6 6 7 6 5 5 6 5 6 5 4 5 6 5 5 4 4 4 5 7 10 11 12 11 11 15 15
16 16 17 17 15 14 13 14 13 12 10 8 7 7 7 7 7 7 6 6 6 5 6 5 5 5 4 5 5 5 4 5 4 4 3 2 4 7 9 10 11 12 14
14 14 14 14 13 13 13 13 12 12 10 8 7 7 7 7 7 7 7 6 6 5 6 5 5 4 5 4 5 5 3 4 6 5 4 3 2 5 7 7 9 11 12
15 13 12 12 12 12 12 13 12 11 10 8 6 8 8 8 7 7 7 6 6 6 5 5 5 5 5 4 4 2 2 1 3 3 2 3 2 5 6 8 8 10 12
14 13 12 11 10 10 10 11 12 11 10 8 7 9 9 8 8 7 6 6 6 6 6 6 6 5 4 4 3 1 3 2 3 0 6 9 4 7 5 8 10 11 13
12 11 11 11 11 10 10 11 11 10 10 10 9 10 10 9 9 8 6 7 7 7 7 6 6 5 4 3 3 2 5 6 6 4 5 7 10 7 6 8 8 11 12
9 9 10 10 10 9 10 11 12 11 11 12 11 12 12 11 10 8 7 8 9 9 9 8 8 6 3 3 3 1 3 4 5 4 6 6 5 7 6 12 13 10 12
11 9 8 8 8 9 10 11 13 12 13 12 11 12 12 11 11 10 10 11 11 10 10 9 8 8 7 6 6 4 2 3 4 4 1 9 10 10 9 13 13 15 12
11 10 9 8 8 9 11 11 13 14 12 12 11 11 11 10 10 10 12 11 11 10 9 9 8 8 5 4 5 6 5 3 2 3 3 0 4 4 5 7 12 18 13
15 12 10 9 9 10 11 12 13 14 13 12 12 11 11 10 10 10 11 10 9 9 9 9 8 8 5 3 4 5 5 4 3 2 2 3 2 2 4 7 8 19 14
15 12 9 9 9 10 11 13 13 13 13 13 12 11 10 8 8 9 9 9 10 9 8 7 4 6 4 2 3 5 2 2 2 2 3 3 4 3 5 5 1 12 19
13 10 8 9 10 10 11 11 12 13 13 12 11 9 8 7 7 8 8 7 9 10 7 8 6 2 5 7 7 8 7 5 4 4 4 2 3 5 6 8 4 5 10
11 8 7 7 10 11 12 12 12 12 12 12 12 10 7 5 5 8 8 8 9 8 5 3 4 3 9 11 5 11 7 7 1 2 3 5 3 4 4 6 4 3 6
11 8 6 7 10 11 11 11 12 12 13 13 11 9 7 6 5 7 8 6 7 5 5 4 2 8 7 7 7 9 6 2 5 1 2 3 5 4 5 7 6 5 4
11 10 6 5 9 11 10 10 12 12 11 10 10 9 7 7 7 7 6 7 5 4 4 4 5 7 5 7 8 10 9 10 8 6 7 11 12 11 9 9 5 7 5
10 10 7 6 5 9 9 9 10 11 12 10 9 11 10 11 10 9 9 8 7 6 5 6 9 10 10 14 13 14 13 21 13 10 12 14 15 15 17 15 18 14 9
10 8 7 6 4 6 7 8 7 10 13 12 11 10 10 12 12 12 11 8 8 9 9 10 12 12 13 19 25 28 24 18 14 10 7 10 12 16 18 24 25 2 10
10 8 5 6 6 8 9 10 9 10 10 14 13 12 10 12 10 9 10 9 10 10 9 11 11 10 14 13 15 19 15 15 11 8 10 13 12 12 19 26 27 21 10
11 9 10 7 8 10 12 13 12 12 9 15 12 12 10 8 8 7 8 8 9 10 11 11 12 13 15 15 12 11 10 9 8 8 12 11 10 12 17 22 26 23 16
16 16 15 12 10 10 12 13 11 8 8 8 11 14 11 9 8 7 8 8 8 10 12 11 11 14 14 15 15 14 13 12 12 12 10 8 10 14 17 19 21 23 21
16 18 19 17 15 11 11 11 11 9 8 8 9 13 11 10 10 8 8 9 10 12 13 12 13 14 12 13 15 15 13 15 15 14 14 13 13 14 16 18 18 18 19
13 16 17 17 15 13 14 13 14 14 12 11 11 13 12 12 10 9 9 10 12 14 13 12 11 12 12 12 13 12 12 12 12 13 13 12 12 13 14 16 17 15 15
13 13 14 16 16 15 17 18 16 13 9 8 10 13 13 14 12 11 12 12 15 17 16 11 10 10 9 8 9 8 6 6 5 6 6 8 9 8 8 9 11 12 13
9 14 14 15 19 19 19 20 18 15 12 12 11 17 15 16 15 13 13 15 18 18 16 13 10 7 6 5 5 3 3 4 5 8 10 10 7 6 7 10 9 7 8
11 10 14 16 19 20 19 20 19 15 15 13 12 14 16 17 16 15 15 16 17 19 16 13 10 7 5 4 1 1 1 3 5 6 9 11 11 9 9 8 10 8 7
Wind_Direction
160 152 150 149 154 154 152 148 146 150 145 146 147 138 133 130 132 136 130 137 139 143 141 137 141 129 135 138 150 152 154 155 141 142 149 143 148 156 171 174 172 162 173
159 150 153 153 157 156 159 155 152 159 155 143 142 135 134 132 137 141 143 144 143 142 132 132 133 122 125 120 126 134 137 106 111 132 157 166 163 164 171 164 168 173 177
161 152 155 155 159 160 164 159 158 162 161 153 142 133 133 125 134 134 134 136 138 137 134 135 132 125 110 115 110 91 93 79 84 101 102 122 165 171 170 167 174 194 186
157 153 156 155 160 163 169 163 169 172 171 168 150 144 133 129 130 124 129 134 130 130 131 132 127 131 121 107 100 74 66 85 96 87 78 94 155 168 180 186 188 188 190
152 148 147 149 155 164 176 177 182 179 178 172 164 143 133 132 127 121 127 127 129 127 126 121 117 115 104 84 103 121 121 6 128 138 99 115 162 182 186 195 193 190 196
150 150 147 148 153 158 166 175 180 184 179 176 161 136 128 126 121 118 127 131 132 123 112 110 106 113 96 87 81 35 300 343 60 300 230 227 233 195 220 208 198 193 197
147 152 151 154 154 156 160 163 157 167 164 158 148 131 122 118 117 116 125 138 134 123 112 108 111 111 90 60 33 338 341 356 351 328 205 224 229 229 216 204 214 201 195
141 150 153 155 156 159 155 153 144 147 151 147 144 128 119 123 114 100 110 139 138 126 118 104 105 98 83 56 44 21 7 14 35 4 216 197 207 230 233 223 191 216 203
152 158 153 152 158 157 152 149 147 146 150 148 141 132 126 129 116 102 105 119 127 123 111 101 95 88 73 59 51 46 37 4 23 40 357 232 251 284 284 261 209 195 205
172 171 158 152 152 156 152 154 153 150 152 150 143 138 134 136 125 116 111 116 123 123 116 106 94 80 65 48 34 30 13 24 37 34 52 341 280 302 305 289 234 187 199
185 177 162 157 153 155 155 159 160 155 155 154 149 151 145 144 134 130 122 121 113 106 102 98 99 92 73 46 31 33 53 4 298 246 321 333 267 292 331 306 266 194 195
182 180 170 167 166 159 159 164 165 159 160 159 162 159 150 151 146 132 123 126 117 101 91 88 82 73 56 25 293 285 17 4 340 298 263 265 242 275 320 348 300 241 210
180 179 187 185 175 167 162 169 166 164 163 162 166 162 161 167 149 125 121 119 121 126 111 78 69 13 60 18 354 342 333 305 299 349 7 329 318 282 293 338 331 227 244
167 193 191 184 181 174 169 171 173 170 166 164 168 175 177 172 156 138 136 140 130 118 103 102 49 24 33 28 340 356 342 324 273 15 353 350 333 297 290 297 328 300 267
174 188 185 186 187 178 177 175 182 175 174 178 177 180 173 170 179 176 158 145 116 112 116 85 96 56 47 45 28 350 349 305 189 140 27 0 359 333 298 257 270 291 290
179 191 167 178 182 180 178 187 189 186 185 183 181 172 166 173 180 176 165 153 159 144 104 95 88 56 32 7 349 313 295 143 158 124 90 63 53 34 358 340 287 242 242
162 185 149 153 180 170 177 202 197 191 187 184 188 174 164 151 156 147 144 132 126 126 123 112 76 68 65 45 31 16 136 134 123 113 91 63 42 26 13 349 344 209 223
185 145 170 179 195 202 195 196 197 203 196 185 181 165 154 153 149 145 134 122 110 98 108 102 94 70 66 78 71 83 108 114 119 112 89 58 41 36 26 21 17 337 188
197 200 211 204 212 219 219 204 195 202 206 196 178 165 163 155 148 134 126 120 101 109 105 91 90 84 75 80 94 94 103 99 99 94 71 65 50 38 36 35 36 59 118
216 211 239 235 228 217 219 219 205 198 206 202 180 164 157 146 138 141 132 126 120 136 128 108 100 92 84 80 84 100 96 95 87 77 100 76 65 52 47 42 44 55 64
228 237 243 240 238 236 224 227 224 208 196 195 190 175 163 170 161 168 157 140 145 152 140 117 115 103 95 89 96 93 89 87 92 98 107 78 68 58 51 51 50 55 61
233 237 241 244 245 249 236 227 234 229 215 203 201 197 181 184 167 176 167 162 164 156 143 131 115 114 108 97 95 104 108 105 107 102 96 90 86 74 63 58 56 58 63
229 238 240 245 252 249 246 235 230 228 215 217 208 209 189 200 183 176 185 186 170 157 153 149 131 115 111 103 92 98 105 106 101 90 83 73 65 60 55 58 55 54 58
236 244 244 245 240 233 236 236 231 241 235 233 217 210 194 190 196 186 183 179 173 166 164 160 148 138 129 114 103 89 91 94 87 75 64 69 62 56 55 56 59 52 49
237 240 248 239 229 221 225 231 228 229 229 226 227 207 196 197 197 193 183 175 173 172 171 165 163 156 147 130 112 92 53 35 26 18 16 13 26 36 24 23 20 32 42
242 229 234 238 227 217 215 222 228 222 226 228 231 221 197 200 196 190 188 178 178 181 177 174 177 179 185 196 153 57 1 35 26 11 4 0 355 1 10 2 349 352 357
Height
3159 3159 3162 3165 3167 3169 3170 3171 3172 3174 3174 3175 3176 3175 3176 3176 3177 3178 3179 3180 3180 3180 3180 3181 3181 3182 3182 3181 3182 3182 3182 3182 3183 3184 3184 3185 3185 3187 3188 3187 3187 3188 3192
3160 3161 3163 3166 3169 3171 3173 3174 3174 3176 3177 3177 3178 3178 3177 3178 3179 3179 3180 3181 3182 3182 3182 3182 3182 3182 3182 3182 3183 3182 3182 3183 3183 3183 3185 3186 3186 3187 3187 3188 3189 3190 3192
3161 3162 3165 3166 3169 3172 3174 3175 3176 3177 3179 3180 3180 3180 3180 3180 3181 3181 3182 3183 3183 3183 3183 3183 3183 3183 3183 3183 3182 3183 3183 3184 3184 3185 3185 3186 3186 3186 3187 3188 3189 3191 3193
3162 3164 3166 3167 3169 3172 3174 3175 3177 3179 3180 3182 3183 3183 3182 3182 3182 3183 3183 3184 3185 3184 3184 3184 3185 3184 3184 3184 3184 3183 3184 3184 3184 3185 3184 3184 3185 3186 3187 3188 3188 3191 3193
3162 3165 3167 3168 3170 3172 3174 3176 3178 3180 3181 3183 3184 3184 3185 3184 3184 3184 3185 3186 3186 3186 3186 3186 3186 3186 3186 3185 3185 3184 3184 3183 3183 3184 3184 3185 3185 3186 3187 3188 3190 3191 3192
3164 3166 3167 3169 3170 3172 3174 3177 3179 3181 3182 3184 3185 3186 3186 3186 3186 3186 3186 3187 3187 3187 3186 3186 3186 3186 3186 3186 3186 3184 3183 3183 3183 3183 3184 3184 3186 3188 3189 3188 3189 3190 3192
3165 3167 3168 3170 3171 3173 3175 3178 3180 3182 3182 3185 3186 3187 3187 3188 3188 3187 3187 3188 3188 3187 3187 3187 3187 3187 3186 3186 3186 3185 3183 3182 3182 3181 3182 3182 3183 3186 3187 3188 3190 3190 3191
3167 3168 3169 3171 3173 3175 3177 3178 3180 3182 3184 3186 3187 3187 3188 3189 3189 3189 3188 3188 3188 3188 3188 3188 3188 3188 3187 3186 3186 3184 3183 3182 3181 3180 3180 3181 3182 3183 3184 3184 3185 3189 3190
3167 3169 3171 3173 3175 3176 3177 3179 3181 3183 3185 3187 3188 3188 3189 3191 3191 3191 3190 3190 3190 3190 3190 3190 3190 3189 3188 3186 3186 3185 3183 3182 3181 3180 3179 3180 3181 3181 3180 3179 3181 3185 3188
3168 3170 3172 3174 3176 3177 3179 3181 3182 3184 3186 3188 3189 3189 3190 3192 3192 3192 3192 3192 3191 3191 3190 3190 3190 3190 3189 3188 3186 3185 3184 3184 3182 3181 3181 3181 3180 3181 3182 3181 3179 3182 3185
3169 3171 3172 3174 3176 3178 3180 3182 3183 3184 3186 3188 3190 3191 3191 3192 3193 3193 3194 3193 3193 3193 3192 3192 3191 3190 3189 3189 3187 3185 3184 3183 3183 3182 3181 3181 3181 3181 3181 3180 3179 3181 3183
3170 3172 3173 3175 3177 3179 3181 3183 3184 3186 3187 3189 3191 3192 3192 3193 3194 3195 3195 3195 3194 3195 3194 3192 3191 3191 3189 3189 3188 3186 3184 3183 3183 3182 3181 3181 3181 3182 3181 3180 3179 3179 3180
3170 3172 3174 3176 3178 3179 3181 3183 3185 3187 3188 3189 3191 3192 3193 3194 3195 3197 3196 3196 3196 3195 3194 3193 3192 3191 3190 3190 3188 3187 3185 3184 3183 3184 3184 3183 3183 3182 3180 3179 3178 3177 3179
3170 3172 3174 3176 3178 3180 3181 3184 3186 3187 3188 3189 3191 3192 3194 3196 3196 3198 3197 3197 3196 3195 3193 3193 3192 3191 3191 3190 3186 3185 3184 3184 3183 3184 3185 3184 3182 3182 3179 3178 3176 3175 3175
3170 3173 3175 3176 3178 3180 3182 3184 3186 3188 3188 3189 3191 3192 3194 3196 3196 3197 3198 3197 3197 3196 3195 3194 3192 3193 3191 3190 3188 3184 3183 3183 3184 3184 3185 3183 3181 3180 3179 3176 3175 3174 3173
3171 3174 3176 3177 3179 3180 3182 3184 3186 3188 3189 3190 3192 3193 3194 3195 3197 3197 3198 3198 3196 3196 3196 3194 3193 3193 3190 3190 3186 3182 3180 3183 3186 3186 3186 3185 3182 3181 3179 3176 3171 3169 3171
3172 3175 3176 3178 3179 3181 3183 3185 3186 3187 3188 3190 3191 3192 3194 3195 3196 3197 3197 3197 3196 3197 3196 3195 3194 3193 3191 3190 3183 3175 3174 3183 3186 3188 3188 3185 3184 3182 3179 3171 3159 3152 3167
3172 3175 3177 3178 3180 3181 3183 3185 3185 3185 3187 3190 3191 3192 3193 3195 3196 3196 3197 3197 3197 3197 3196 3195 3195 3193 3192 3190 3187 3182 3184 3187 3188 3188 3187 3187 3186 3183 3181 3173 3163 3147 3165
3170 3173 3176 3178 3180 3181 3182 3185 3185 3186 3187 3189 3191 3192 3193 3194 3195 3196 3196 3197 3197 3197 3197 3196 3196 3195 3193 3192 3191 3190 3189 3189 3190 3189 3189 3188 3187 3186 3182 3176 3169 3168 3170
3168 3171 3174 3176 3178 3180 3181 3182 3184 3186 3187 3188 3190 3191 3192 3193 3194 3196 3197 3198 3198 3199 3198 3198 3198 3196 3196 3195 3194 3193 3193 3192 3192 3190 3190 3190 3189 3187 3183 3179 3176 3173 3171
3165 3168 3171 3174 3177 3178 3180 3181 3182 3184 3186 3187 3189 3189 3190 3193 3193 3195 3197 3198 3199 3199 3200 3200 3200 3199 3198 3197 3196 3195 3194 3193 3192 3192 3192 3192 3190 3188 3186 3183 3181 3179 3176
3161 3165 3168 3172 3175 3176 3178 3180 3180 3182 3185 3185 3187 3188 3189 3191 3192 3194 3196 3197 3199 3200 3201 3201 3201 3200 3199 3199 3198 3196 3196 3196 3195 3195 3194 3193 3192 3190 3187 3185 3183 3182 3181
3158 3161 3165 3169 3172 3174 3175 3176 3178 3180 3182 3184 3185 3186 3188 3189 3190 3193 3195 3197 3198 3200 3202 3202 3202 3202 3201 3201 3201 3201 3200 3199 3199 3199 3198 3197 3196 3194 3192 3189 3187 3185 3182
3155 3160 3163 3166 3169 3172 3173 3174 3177 3179 3181 3183 3184 3186 3186 3187 3189 3191 3194 3196 3198 3199 3202 3202 3202 3203 3203 3202 3202 3202 3202 3202 3201 3201 3200 3199 3198 3196 3194 3192 3190 3187 3185
3154 3157 3161 3164 3166 3169 3171 3173 3176 3177 3179 3180 3181 3183 3184 3186 3187 3189 3192 3194 3196 3198 3201 3201 3202 3202 3202 3203 3202 3202 3202 3201 3200 3199 3199 3198 3198 3197 3195 3194 3192 3190 3189
3152 3154 3157 3160 3163 3166 3168 3171 3173 3176 3177 3178 3179 3180 3181 3184 3186 3188 3191 3193 3195 3197 3200 3201 3202 3202 3203 3202 3202 3202 3202 3201 3200 3200 3200 3198 3196 3196 3195 3193 3192 3190 3189